Weather in Oma

Russia / Nenets Autonomous Okrug     66°38′30″N   46°29′32″E
temp.,
°C
wind,
m/s
gust,
m/s
humid.,
%
clouds,
%
prec.,
mm/h
press.,
hPa
HPBL,
m
27 february, sat
sat2700:00−14s6109498 0.3 1005354
03:00−14s6109497 0.5 1007339
06:00−15s6109295 0.1 1005290
09:00−15s7109498 0.3 1006353
12:00−13ssw7109397 0.3 1006379
15:00−12ssw7109498 0.8 1007368
18:00−13ssw479598 0.5 1006264
21:00−13ssw349598 0.9 100776
28 february, sun
sun2800:00−16sw349792 0.0 100723
03:00−16sw449673 0.0 100827
06:00−11sw459594 0.1 1007107
09:00−7wsw469697 0.4 1008130
12:00−6w479697 0.4 1008263
15:00−8wsw469598 0.8 1009115
18:00−10wsw579581 0.0 1009124
21:00−9sw699690 0.1 1009203
1 march, mon
mon100:00−6sw61093100 0.1 1007416
03:00−6sw81394100 0.5 1005425
06:00−5sw91492100 0.1 1001444
09:00−3ssw101595100 0.9 997514
12:00−1sw111697100 1.4 993697
15:00+1w71199100 3.1 991326
18:000wnw81297100 1.0 990520
21:00−4w579588 1.0 990112
2 march, tue
tue200:00−5wsw6109688 0.1 990173
03:00−6wsw589484 0.3 990122
06:00−8sw699424 0.0 988137
09:00−5wsw8139553 0.4 988328
12:00−2w91395100 0.7 988735
15:00−3wnw111792100 1.3 989865
18:00−5nw131991100 0.7 991844
21:00−5nw111882100 1.0 993757
3 march, wed
wed300:00−9nw9168884 0.0 995291
03:00−10wnw7129142 0.0 997200
06:00−11wnw611940 0.0 998148
09:00−10wnw611940 0.0 998156
12:00−7wnw699491 0.1 998338
15:00−7w599394 0.1 998218
18:00−7w71295100 0.1 997228
21:00−9w61095100 0.2 997153